Flag for Algeria Weather past 2 weeks in Oran, Algeria

Now
73 °F

Clear.


Feels Like: 74 °F
Forecast: 71 / 80 °F
Wind: 8 mph from West

Location: Oran / Es Senia

Current Time: Sep 3, 2015 at 3:50:03 AM

Latest Report: Sep 3, 2015 at 3:00 AM


Visibility: 10 mi

Pressure: 29.95 "Hg

Humidity: 78%

Dew point: 66 °F

Location of OranLocation

Historic Weather in Oran — Graph

°F

Oran temperature yesterday

Maximum temperature yesterday: 86 °F (at 11:30 AM)
Minimum temperature yesterday: 70 °F (at 2:00 AM)
Average temperature yesterday: 77 °F

Past Weeks' High & Low Weather Summary

 TemperatureHumidityPressure
High91 °F (Aug 20, 5:00 PM)94% (Aug 27, 2:00 AM)30.12 "Hg (Aug 27, 2:00 AM)
Low64 °F (Aug 25, 4:30 AM)33% (Aug 24, 3:30 PM)29.89 "Hg (Aug 22, 5:00 PM)
Average80 °F71%29.99 "Hg
* Reported Aug 19 2:00 AM — Sep 3 2:30 AM, Oran, Weather by CustomWeather, © 2015

Note: Actual official high and low records may vary slightly from our data, if they occured in-between our weather recording intervals... More about our weather records

Advertising

Oran weather history for previous 24 hours

 ConditionsComfort  
Time TempWeatherWind HumidityBarometerVisibility
2:30 AM
Thu, Sep 3
73 °FClear.5 mph74%29.95 "Hg10 mi
2:00 AM73 °FClear.5 mph74%29.95 "Hg10 mi
1:30 AM75 °FClear.No wind74%29.95 "Hg10 mi
1:00 AM75 °FClear.6 mph74%29.95 "Hg10 mi
12:30 AM73 °FClear.2 mph74%29.95 "Hg10 mi
12:00 AM75 °FClear.No wind65%29.95 "Hg10 mi
11:30 PM
Wed, Sep 2
75 °FPassing clouds.3 mph65%29.95 "HgN/A
11:00 PM73 °FPassing clouds.2 mph65%29.92 "HgN/A
10:30 PM75 °FPassing clouds.2 mph61%29.92 "HgN/A
10:00 PM77 °FPassing clouds.8 mph61%29.95 "HgN/A
9:30 PM77 °FPassing clouds.9 mph61%29.98 "HgN/A
9:00 PM77 °FPassing clouds.6 mph65%29.95 "HgN/A
8:30 PM75 °FPassing clouds.2 mph74%29.95 "HgN/A
8:00 PM77 °FPassing clouds.6 mph69%29.92 "HgN/A
7:30 PM77 °FPassing clouds.6 mph69%29.92 "HgN/A
7:00 PM79 °FBroken clouds.7 mph70%29.92 "HgN/A
6:30 PM79 °FPartly sunny.6 mph65%29.92 "HgN/A
6:00 PM79 °FPartly sunny.12 mph65%29.89 "HgN/A
5:30 PM79 °FPartly sunny.16 mph65%29.92 "HgN/A
5:00 PM81 °FPartly sunny.16 mph62%29.92 "HgN/A
4:30 PM81 °FPartly sunny.14 mph58%29.92 "HgN/A
4:00 PM82 °FPartly sunny.16 mph58%29.92 "HgN/A
3:30 PM82 °FPartly sunny.14 mph66%29.92 "HgN/A
3:00 PM82 °FPartly sunny.14 mph66%29.92 "HgN/A
2:30 PM84 °FScattered clouds.16 mph62%29.95 "HgN/A
2:00 PM84 °FSunny.14 mph62%29.95 "Hg10 mi
1:30 PM84 °FSunny.12 mph62%29.95 "Hg10 mi
1:00 PM84 °FSunny.12 mph62%29.95 "Hg10 mi
12:30 PM86 °FSunny.12 mph43%29.98 "Hg10 mi
12:00 PM86 °FSunny.7 mph43%29.98 "Hg10 mi
11:30 AM86 °FSunny.7 mph38%29.98 "Hg10 mi
11:00 AM84 °FSunny.7 mph40%29.98 "Hg10 mi
10:30 AM82 °FPassing clouds.5 mph48%29.98 "HgN/A
10:00 AM81 °FPassing clouds.5 mph51%29.98 "HgN/A
9:30 AM79 °FScattered clouds.2 mph58%29.98 "HgN/A
9:00 AM77 °FScattered clouds.2 mph57%29.98 "HgN/A
8:30 AM75 °FScattered clouds.5 mph65%29.98 "HgN/A
8:00 AM73 °FScattered clouds.5 mph69%29.98 "HgN/A
7:30 AM72 °FScattered clouds.2 mph78%29.98 "HgN/A
7:00 AM70 °FScattered clouds.No wind83%29.98 "HgN/A
6:30 AM70 °FScattered clouds.No wind78%29.98 "HgN/A
6:00 AM70 °FPassing clouds.No wind78%29.98 "HgN/A
5:30 AM70 °FPassing clouds.No wind78%29.98 "HgN/A
4:30 AM72 °FPassing clouds.5 mph73%29.98 "HgN/A
4:00 AM72 °FPassing clouds.No wind73%29.98 "HgN/A
3:30 AM72 °FClear.No wind73%29.98 "Hg10 mi
3:00 AM72 °FClear.5 mph73%29.98 "Hg10 mi
Weather by CustomWeather, © 2015

See weather overviewHow to use our weather pages